Date String (YYYY-MM-DD hh:mm:ss) UTC,Instrument flags,absolute air pressure of the measurement (hPa),sample flow rate (lpm),inlet stack bypass flow (lpm),air temperature of the measurement (°C),ambient temperature measured by the external sensor (°C),aerosol sample conditioner tube jacket temperature (°C),OPC LED temperature (°C),internal box temperature (°C),relative humidity of the measurement (%),span deviation,mass concentration of particles derived from Lorenz-Mie calculation of OPC scattering (μg/m³),mass concentration of particles derived from Lorenz-Mie calculation of OPC scattering (μg/m³),mass concentration of particles derived from Lorenz-Mie calculation of OPC scattering (μg/m³)
DateTimeUTC,F1_M11,P_M11,Q1_M11,Q2_M11,T1_M11,T2_M11,T3_M11,T4_M11,T5_M11,U1_M11,ZSPAN_M11,X0_M11,X2_M11,X1_M11
2024-01-01 05:00:00,SystemResetWarning,0831.7,4.99,000.00,022.3,021.1,000.0,030.7,023.7,13.8,0000.0,0010.68,0005.89,0005.40
2024-01-01 05:01:00,SystemResetWarning,0831.7,5.00,000.00,022.3,021.1,000.0,030.7,023.7,13.9,0000.0,0010.89,0005.90,0005.40
2024-01-01 05:02:00,SystemResetWarning,0831.7,5.00,000.00,022.3,021.1,000.0,030.7,023.7,13.9,0000.0,0011.10,0005.92,0005.41
2024-01-01 05:03:00,SystemResetWarning,0831.7,5.01,000.00,022.3,021.1,000.0,030.7,023.7,13.9,0000.0,0011.38,0005.89,0005.39
2024-01-01 05:04:00,SystemResetWarning,0831.7,5.00,000.00,022.3,021.1,000.0,030.7,023.7,13.9,0000.0,0012.93,0005.92,0005.40
2024-01-01 05:05:00,SystemResetWarning,0831.7,5.00,000.00,022.3,021.1,000.0,030.7,023.7,13.9,0000.0,0013.69,0005.94,0005.41
2024-01-01 05:06:00,SystemResetWarning,0831.7,5.01,000.00,022.3,021.1,000.0,030.7,023.7,13.9,0000.0,0014.37,0005.98,0005.41
2024-01-01 05:07:00,SystemResetWarning,0831.7,5.00,000.00,022.3,021.1,000.0,030.7,023.7,13.9,0000.0,0014.17,0005.99,0005.40
2024-01-01 05:08:00,SystemResetWarning,0831.7,5.00,000.00,022.3,021.2,000.0,030.7,023.7,14.0,0000.0,0014.19,0005.98,0005.40
2024-01-01 05:09:00,SystemResetWarning,0831.7,5.00,000.00,022.3,021.2,000.0,030.7,023.7,14.0,0000.0,0013.82,0005.97,0005.42
2024-01-01 05:10:00,SystemResetWarning,0831.7,5.00,000.00,022.3,021.2,000.0,030.7,023.7,14.0,0000.0,0013.79,0005.97,0005.43
2024-01-01 05:11:00,SystemResetWarning,0831.7,5.00,000.00,022.3,021.2,000.0,030.7,023.7,14.0,0000.0,0013.76,0005.98,0005.43
2024-01-01 05:12:00,SystemResetWarning,0831.7,5.00,000.00,022.3,021.2,000.0,030.6,023.6,14.0,0000.0,0013.64,0006.03,0005.44
2024-01-01 05:13:00,SystemResetWarning,0831.7,5.00,000.00,022.3,021.2,000.0,030.6,023.6,14.0,0000.0,0013.58,0006.04,0005.45
2024-01-01 05:14:00,SystemResetWarning,0831.7,5.00,000.00,022.2,021.1,000.0,030.6,023.6,14.0,0000.0,0014.04,0006.05,0005.47
2024-01-01 05:15:00,SystemResetWarning,0831.7,4.99,000.00,022.2,021.1,000.0,030.6,023.6,14.0,0000.0,0013.28,0006.05,0005.49
2024-01-01 05:16:00,SystemResetWarning,0831.6,4.99,000.00,022.2,021.1,000.0,030.6,023.6,14.0,0000.0,0013.43,0006.05,0005.49
2024-01-01 05:17:00,SystemResetWarning,0831.6,5.00,000.00,022.2,021.1,000.0,030.6,023.6,14.0,0000.0,0012.62,0006.05,0005.51
2024-01-01 05:18:00,SystemResetWarning,0831.7,5.00,000.00,022.2,021.0,000.0,030.6,023.6,14.1,0000.0,0012.68,0006.08,0005.52
2024-01-01 05:19:00,SystemResetWarning,0831.6,5.00,000.00,022.2,021.0,000.0,030.6,023.5,14.1,0000.0,0013.59,0006.12,0005.54
2024-01-01 05:20:00,SystemResetWarning,0831.6,5.00,000.00,022.2,021.0,000.0,030.6,023.5,14.1,0000.0,0013.65,0006.11,0005.52
2024-01-01 05:21:00,SystemResetWarning,0831.6,5.00,000.00,022.2,021.0,000.0,030.6,023.5,14.1,0000.0,0013.67,0006.11,0005.51
2024-01-01 05:22:00,SystemResetWarning,0831.6,5.00,000.00,022.2,020.9,000.0,030.6,023.5,14.1,0000.0,0013.75,0006.10,0005.51
2024-01-01 05:23:00,SystemResetWarning,0831.6,5.00,000.00,022.2,020.9,000.0,030.6,023.5,14.1,0000.0,0013.84,0006.11,0005.51
2024-01-01 05:24:00,SystemResetWarning,0831.6,5.00,000.00,022.1,020.9,000.0,030.5,023.5,14.1,0000.0,0013.85,0006.10,0005.51
2024-01-01 05:25:00,SystemResetWarning,0831.7,5.00,000.00,022.1,020.9,000.0,030.5,023.5,14.1,0000.0,0014.00,0006.10,0005.50
2024-01-01 05:26:00,SystemResetWarning,0831.7,5.01,000.00,022.1,020.9,000.0,030.5,023.5,14.2,0000.0,0013.47,0006.10,0005.49
2024-01-01 05:27:00,SystemResetWarning,0831.7,5.00,000.00,022.1,020.8,000.0,030.5,023.5,14.2,0000.0,0012.87,0006.11,0005.50
2024-01-01 05:28:00,SystemResetWarning,0831.7,5.00,000.00,022.1,020.9,000.0,030.5,023.4,14.1,0000.0,0012.88,0006.14,0005.50
2024-01-01 05:29:00,SystemResetWarning,0831.7,5.00,000.00,022.1,020.8,000.0,030.5,023.4,14.2,0000.0,0012.90,0006.17,0005.50
2024-01-01 05:30:00,SystemResetWarning,0831.7,4.99,000.00,022.1,020.8,000.0,030.5,023.4,14.2,0000.0,0012.06,0006.17,0005.51
2024-01-01 05:31:00,SystemResetWarning,0831.7,5.00,000.00,022.1,020.8,000.0,030.5,023.4,14.2,0000.0,0011.64,0006.19,0005.52
2024-01-01 05:32:00,SystemResetWarning,0831.7,5.00,000.00,022.1,020.8,000.0,030.5,023.4,14.3,0000.0,0011.78,0006.23,0005.54
2024-01-01 05:33:00,SystemResetWarning,0831.7,5.00,000.00,022.0,020.8,000.0,030.4,023.4,14.3,0000.0,0012.30,0006.24,0005.55
2024-01-01 05:34:00,SystemResetWarning,0831.7,5.00,000.00,022.0,020.8,000.0,030.4,023.4,14.3,0000.0,0013.85,0006.23,0005.54
2024-01-01 05:35:00,SystemResetWarning,0831.7,5.01,000.00,022.0,020.8,000.0,030.4,023.4,14.4,0000.0,0014.81,0006.23,0005.54
2024-01-01 05:36:00,SystemResetWarning,0831.7,5.01,000.00,022.0,020.8,000.0,030.4,023.4,14.4,0000.0,0014.95,0006.24,0005.54
2024-01-01 05:37:00,SystemResetWarning,0831.7,5.00,000.00,022.0,020.8,000.0,030.4,023.3,14.4,0000.0,0014.51,0006.24,0005.55
2024-01-01 05:38:00,SystemResetWarning,0831.7,5.00,000.00,022.0,020.7,000.0,030.4,023.3,14.4,0000.0,0014.61,0006.25,0005.56
2024-01-01 05:39:00,SystemResetWarning,0831.6,5.00,000.00,022.0,020.7,000.0,030.4,023.3,14.3,0000.0,0014.30,0006.25,0005.58
2024-01-01 05:40:00,SystemResetWarning,0831.7,4.99,000.00,022.0,020.7,000.0,030.4,023.3,14.3,0000.0,0014.06,0006.23,0005.59
2024-01-01 05:41:00,SystemResetWarning,0831.7,4.99,000.00,022.0,020.7,000.0,030.4,023.3,14.3,0000.0,0014.02,0006.22,0005.62
2024-01-01 05:42:00,SystemResetWarning,0831.8,5.00,000.00,021.9,020.7,000.0,030.4,023.3,14.3,0000.0,0014.12,0006.25,0005.65
2024-01-01 05:43:00,SystemResetWarning,0831.7,5.00,000.00,021.9,020.7,000.0,030.3,023.3,14.3,0000.0,0014.21,0006.30,0005.69
2024-01-01 05:44:00,SystemResetWarning,0831.7,5.01,000.00,021.9,020.7,000.0,030.3,023.3,14.3,0000.0,0014.16,0006.36,0005.75
2024-01-01 05:45:00,SystemResetWarning,0831.7,5.01,000.00,021.9,020.7,000.0,030.3,023.3,14.3,0000.0,0014.32,0006.47,0005.82
2024-01-01 05:46:00,SystemResetWarning,0831.7,5.00,000.00,021.9,020.7,000.0,030.3,023.3,14.3,0000.0,0013.93,0006.52,0005.88
2024-01-01 05:47:00,SystemResetWarning,0831.8,4.99,000.00,021.9,020.7,000.0,030.3,023.3,14.3,0000.0,0013.30,0006.61,0005.95
2024-01-01 05:48:00,SystemResetWarning,0831.9,4.99,000.00,021.9,020.6,000.0,030.3,023.2,14.3,0000.0,0013.47,0006.68,0005.99
2024-01-01 05:49:00,SystemResetWarning,0831.8,5.00,000.00,021.9,020.6,000.0,030.3,023.2,14.3,0000.0,0013.23,0006.74,0006.03
2024-01-01 05:50:00,SystemResetWarning,0831.9,5.00,000.00,021.9,020.6,000.0,030.3,023.2,14.3,0000.0,0013.65,0006.82,0006.06
2024-01-01 05:51:00,SystemResetWarning,0831.8,5.00,000.00,021.8,020.6,000.0,030.3,023.2,14.3,0000.0,0014.25,0006.89,0006.10
2024-01-01 05:52:00,SystemResetWarning,0832.1,5.00,000.00,021.8,020.6,000.0,030.2,023.2,14.3,0000.0,0014.64,0006.94,0006.12
2024-01-01 05:53:00,SystemResetWarning,0831.8,5.01,000.00,021.8,020.6,000.0,030.2,023.2,14.3,0000.0,0015.58,0006.92,0006.12
2024-01-01 05:54:00,SystemResetWarning,0831.7,5.00,000.00,021.8,020.6,000.0,030.2,023.2,14.3,0000.0,0015.47,0006.88,0006.10
2024-01-01 05:55:00,SystemResetWarning,0831.8,5.00,000.00,021.8,020.6,000.0,030.2,023.2,14.3,0000.0,0015.15,0006.87,0006.07
2024-01-01 05:56:00,SystemResetWarning,0831.7,5.00,000.00,021.8,020.6,000.0,030.2,023.2,14.3,0000.0,0014.28,0006.81,0006.02
2024-01-01 05:57:00,SystemResetWarning,0831.7,5.01,000.00,021.8,020.6,000.0,030.2,023.2,14.4,0000.0,0014.28,0006.74,0005.97
2024-01-01 05:58:00,SystemResetWarning,0831.7,4.99,000.00,021.8,020.6,000.0,030.2,023.2,14.4,0000.0,0013.96,0006.65,0005.91
2024-01-01 05:59:00,SystemResetWarning,0831.7,5.00,000.00,021.8,020.6,000.0,030.2,023.2,14.4,0001.7,0014.23,0006.61,0005.86
